| time (UTC) | temp F | wind direction | speed MPH | gust MPH | rain 1hr in | rain 24hr in | rain mn in | humidity % | barometer mb |
| 20260831103041 | 91 | 331 | 4.0 | 10.0 | 0.00 | 0.00 | 0.00 | 37 | 1014.1 |
| 20260831101538 | 91 | 14 | 2.0 | 10.0 | 0.00 | 0.00 | 0.00 | 38 | 1014.2 |
| 20260831100034 | 91 | 341 | 3.0 | 11.0 | 0.00 | 0.00 | 0.00 | 39 | 1014.2 |
| 20260831094530 | 90 | 76 | 1.0 | 9.0 | 0.00 | 0.00 | 0.00 | 40 | 1014.4 |
| 20260831093028 | 90 | 286 | 4.0 | 11.0 | 0.00 | 0.00 | 0.00 | 40 | 1014.4 |
| 20260831091526 | 90 | 320 | 3.0 | 8.0 | 0.00 | 0.00 | 0.00 | 40 | 1014.6 |
| 20260831090023 | 90 | 31 | 0.0 | 8.0 | 0.00 | 0.00 | 0.00 | 41 | 1014.6 |
| 20260831084519 | 89 | 62 | 3.0 | 10.0 | 0.00 | 0.00 | 0.00 | 42 | 1014.7 |
| 20260831083028 | 89 | 319 | 4.0 | 9.0 | 0.00 | 0.00 | 0.00 | 42 | 1014.8 |
| 20260831081510 | 88 | 338 | 3.0 | 8.0 | 0.00 | 0.00 | 0.00 | 43 | 1014.8 |
| 20260831080005 | 87 | 345 | 2.0 | 10.0 | 0.00 | 0.00 | 0.00 | 45 | 1014.7 |
| 20260831074632 | 87 | 50 | 2.0 | 11.0 | 0.00 | 0.00 | 0.00 | 46 | 1014.8 |
| 20260831073034 | 86 | 12 | 2.0 | 8.0 | 0.00 | 0.00 | 0.00 | 47 | 1014.8 |
| 20260831071529 | 85 | 320 | 0.0 | 5.0 | 0.00 | 0.00 | 0.00 | 49 | 1014.7 |
| 20260831070027 | 84 | 293 | 3.0 | 8.0 | 0.00 | 0.00 | 0.00 | 50 | 1014.8 |
| 20260831064521 | 83 | 311 | 2.0 | 10.0 | 0.00 | 0.00 | 0.00 | 51 | 1014.7 |
| 20260831063016 | 83 | 110 | 1.0 | 6.0 | 0.00 | 0.00 | 0.00 | 50 | 1014.7 |
| 20260831061512 | 83 | 296 | 2.0 | 5.0 | 0.00 | 0.00 | 0.00 | 53 | 1014.8 |
| 20260831060007 | 81 | 355 | 0.0 | 4.0 | 0.00 | 0.00 | 0.00 | 55 | 1014.8 |
| 20260831054502 | 81 | 360 | 1.0 | 5.0 | 0.00 | 0.00 | 0.00 | 56 | 1014.7 |
| 20260831053100 | 80 | 318 | 1.0 | 6.0 | 0.00 | 0.00 | 0.00 | 57 | 1014.7 |
| 20260831051556 | 79 | 308 | 1.0 | 4.0 | 0.00 | 0.00 | 0.00 | 56 | 1014.6 |
| 20260831050050 | 78 | 309 | 0.0 | 3.0 | 0.00 | 0.00 | 0.00 | 55 | 1014.5 |
| 20260831044549 | 78 | 311 | 1.0 | 3.0 | 0.00 | 0.00 | 0.00 | 55 | 1014.4 |
| 20260831043041 | 77 | 300 | 1.0 | 5.0 | 0.00 | 0.00 | 0.00 | 56 | 1014.4 |
| 20260831041626 | 76 | 268 | 1.0 | 3.0 | 0.00 | 0.00 | 0.00 | 57 | 1014.3 |
| 20260831040037 | 75 | 268 | 0.0 | 3.0 | 0.00 | 0.00 | 0.00 | 58 | 1014.3 |
| 20260831034536 | 75 | 268 | 0.0 | 0.0 | 0.00 | 0.00 | 0.00 | 58 | 1014.3 |
| 20260831033035 | 75 | 268 | 0.0 | 1.0 | 0.00 | 0.00 | 0.00 | 59 | 1014.3 |
| 20260831031535 | 75 | 268 | 0.0 | 1.0 | 0.00 | 0.00 | 0.00 | 59 | 1014.3 |
| 20260831030036 | 75 | 268 | 0.0 | 1.0 | 0.00 | 0.00 | 0.00 | 60 | 1014.2 |
| 20260831024540 | 75 | 268 | 0.0 | 1.0 | 0.00 | 0.00 | 0.00 | 59 | 1014.1 |
| 20260831023033 | 76 | 268 | 0.0 | 1.0 | 0.00 | 0.00 | 0.00 | 59 | 1014.2 |
| 20260831021538 | 76 | 268 | 0.0 | 1.0 | 0.00 | 0.00 | 0.00 | 58 | 1014.2 |
| 20260831020032 | 76 | 268 | 0.0 | 1.0 | 0.00 | 0.00 | 0.00 | 56 | 1014.2 |
| 20260831014527 | 76 | 268 | 0.0 | 1.0 | 0.00 | 0.00 | 0.00 | 55 | 1014.2 |
| 20260831013026 | 77 | 268 | 0.0 | 1.0 | 0.00 | 0.00 | 0.00 | 54 | 1014.3 |
| 20260831011541 | 77 | 268 | 0.0 | 2.0 | 0.00 | 0.00 | 0.00 | 53 | 1014.3 |
| 20260831010024 | 77 | 268 | 0.0 | 1.0 | 0.00 | 0.00 | 0.00 | 51 | 1014.3 |
| 20260831004522 | 78 | 268 | 0.0 | 2.0 | 0.00 | 0.00 | 0.00 | 53 | 1014.4 |
| 20260831003024 | 78 | 268 | 0.0 | 2.0 | 0.00 | 0.00 | 0.00 | 55 | 1014.6 |
| 20260831001520 | 78 | 268 | 0.0 | 1.0 | 0.00 | 0.00 | 0.00 | 55 | 1014.6 |
| 20260831000020 | 77 | 268 | 0.0 | 3.0 | 0.00 | 0.00 | 0.00 | 56 | 1014.6 |
| 20260830234518 | 77 | 200 | 0.0 | 2.0 | 0.00 | 0.00 | 0.00 | 59 | 1014.6 |
| 20260830233022 | 77 | 200 | 0.0 | 1.0 | 0.00 | 0.00 | 0.00 | 60 | 1014.6 |
| 20260830231516 | 77 | 200 | 0.0 | 2.0 | 0.00 | 0.00 | 0.00 | 59 | 1014.6 |
| 20260830230015 | 78 | 200 | 0.0 | 1.0 | 0.00 | 0.00 | 0.00 | 58 | 1014.7 |
| 20260830224518 | 78 | 200 | 0.0 | 1.0 | 0.00 | 0.00 | 0.00 | 57 | 1014.7 |
| 20260830223012 | 78 | 200 | 0.0 | 1.0 | 0.00 | 0.00 | 0.00 | 57 | 1014.8 |
| 20260830221511 | 78 | 200 | 0.0 | 1.0 | 0.00 | 0.00 | 0.00 | 57 | 1014.9 |
| 20260830220013 | 78 | 200 | 0.0 | 1.0 | 0.00 | 0.00 | 0.00 | 56 | 1014.9 |
| 20260830214508 | 78 | 200 | 0.0 | 1.0 | 0.00 | 0.00 | 0.00 | 58 | 1014.9 |
| 20260830213009 | 78 | 201 | 0.0 | 1.0 | 0.00 | 0.00 | 0.00 | 58 | 1014.9 |
| 20260830211506 | 79 | 200 | 0.0 | 0.0 | 0.00 | 0.00 | 0.00 | 58 | 1015.0 |
| 20260830210004 | 79 | 200 | 0.0 | 0.0 | 0.00 | 0.00 | 0.00 | 59 | 1014.9 |
| 20260830204502 | 79 | 201 | 0.0 | 1.0 | 0.00 | 0.00 | 0.00 | 60 | 1014.8 |
| 20260830203002 | 80 | 201 | 0.0 | 0.0 | 0.00 | 0.00 | 0.00 | 65 | 1014.7 |
| 20260830201501 | 80 | 200 | 0.0 | 0.0 | 0.00 | 0.00 | 0.00 | 66 | 1014.7 |
| 20260830200103 | 80 | 201 | 0.0 | 0.0 | 0.00 | 0.00 | 0.00 | 66 | 1014.6 |
| 20260830194607 | 81 | 200 | 0.0 | 1.0 | 0.00 | 0.00 | 0.00 | 65 | 1014.6 |
| 20260830193105 | 81 | 200 | 0.0 | 1.0 | 0.00 | 0.00 | 0.00 | 64 | 1014.5 |
| 20260830191559 | 82 | 200 | 0.0 | 1.0 | 0.00 | 0.00 | 0.00 | 62 | 1014.6 |
| 20260830190057 | 82 | 200 | 0.0 | 1.0 | 0.00 | 0.00 | 0.00 | 61 | 1014.5 |
| 20260830184608 | 83 | 201 | 0.0 | 1.0 | 0.00 | 0.00 | 0.00 | 57 | 1014.4 |
| 20260830183102 | 83 | 201 | 0.0 | 0.0 | 0.00 | 0.00 | 0.00 | 56 | 1014.2 |
| 20260830181555 | 83 | 201 | 0.0 | 0.0 | 0.00 | 0.00 | 0.00 | 56 | 1014.1 |
| 20260830180053 | 83 | 201 | 0.0 | 1.0 | 0.00 | 0.00 | 0.00 | 55 | 1014.0 |
| 20260830174555 | 84 | 200 | 0.0 | 0.0 | 0.00 | 0.00 | 0.00 | 54 | 1013.9 |
| 20260830173059 | 84 | 200 | 0.0 | 1.0 | 0.00 | 0.00 | 0.00 | 53 | 1013.7 |
| 20260830171621 | 84 | 201 | 0.0 | 3.0 | 0.00 | 0.00 | 0.00 | 56 | 1013.5 |
| 20260830170051 | 85 | 200 | 0.0 | 4.0 | 0.00 | 0.00 | 0.00 | 54 | 1013.5 |
| 20260830164550 | 85 | 162 | 1.0 | 3.0 | 0.00 | 0.00 | 0.00 | 52 | 1013.6 |
| 20260830163051 | 86 | 162 | 0.0 | 2.0 | 0.00 | 0.00 | 0.00 | 50 | 1013.6 |
| 20260830161550 | 87 | 162 | 0.0 | 2.0 | 0.00 | 0.00 | 0.00 | 49 | 1013.5 |
| 20260830160049 | 89 | 163 | 0.0 | 5.0 | 0.00 | 0.00 | 0.00 | 46 | 1013.4 |
| 20260830154548 | 90 | 46 | 1.0 | 3.0 | 0.00 | 0.00 | 0.00 | 45 | 1013.3 |
| 20260830153047 | 91 | 43 | 0.0 | 4.0 | 0.00 | 0.00 | 0.00 | 43 | 1013.3 |
| 20260830151553 | 92 | 109 | 1.0 | 3.0 | 0.00 | 0.00 | 0.00 | 41 | 1013.1 |
| 20260830150047 | 92 | 261 | 4.0 | 7.0 | 0.00 | 0.00 | 0.00 | 40 | 1013.1 |
| 20260830144549 | 92 | 270 | 1.0 | 3.0 | 0.00 | 0.00 | 0.00 | 38 | 1013.1 |
| 20260830143046 | 92 | 311 | 2.0 | 5.0 | 0.00 | 0.00 | 0.00 | 37 | 1013.1 |
| 20260830141545 | 92 | 295 | 2.0 | 7.0 | 0.00 | 0.00 | 0.00 | 38 | 1013.1 |
| 20260830140044 | 92 | 287 | 0.0 | 7.0 | 0.00 | 0.00 | 0.00 | 38 | 1013.1 |
| 20260830134545 | 91 | 298 | 3.0 | 6.0 | 0.00 | 0.00 | 0.00 | 38 | 1013.2 |
| 20260830133043 | 91 | 355 | 2.0 | 6.0 | 0.00 | 0.00 | 0.00 | 41 | 1013.2 |
| 20260830131546 | 89 | 97 | 1.0 | 8.0 | 0.00 | 0.00 | 0.00 | 44 | 1013.3 |
| 20260830130052 | 90 | 97 | 1.0 | 8.0 | 0.00 | 0.00 | 0.00 | 44 | 1013.3 |
| 20260830124541 | 91 | 114 | 2.0 | 8.0 | 0.00 | 0.00 | 0.00 | 40 | 1013.2 |
| 20260830123040 | 94 | 62 | 3.0 | 9.0 | 0.00 | 0.00 | 0.00 | 36 | 1013.3 |
| 20260830121535 | 96 | 250 | 0.0 | 4.0 | 0.00 | 0.00 | 0.00 | 33 | 1013.5 |
| 20260830120124 | 95 | 231 | 2.0 | 6.0 | 0.00 | 0.00 | 0.00 | 33 | 1013.6 |
| 20260830114549 | 94 | 254 | 1.0 | 7.0 | 0.00 | 0.00 | 0.00 | 35 | 1013.7 |
| 20260830113048 | 94 | 235 | 1.0 | 7.0 | 0.00 | 0.00 | 0.00 | 33 | 1013.8 |
| 20260830111539 | 93 | 141 | 1.0 | 8.0 | 0.00 | 0.00 | 0.00 | 35 | 1013.9 |
| 20260830110038 | 92 | 260 | 3.0 | 8.0 | 0.00 | 0.00 | 0.00 | 33 | 1014.1 |
| 20260830104531 | 92 | 104 | 2.0 | 5.0 | 0.00 | 0.00 | 0.00 | 37 | 1014.2 |